Location: Newark
(27.9675°N, 86.8869°E)
Time: 17:38:02
(UTC+00:00)

SR - Pass Details

Date: 26 October 2019
Orbit: 574 x 882 km, 66.7° (Epoch: 14 November)

Event Time Altitude Azimuth Distance (km) Brightness Sun altitude
Rises 13:19:09 0° 177° (S) 2,934 ? -23.9°
Enters shadow 13:20:31 - 172° (S) 2,440 ? -24.2°
Reaches altitude 10° 13:21:36 10° 165° (SSE) 2,075 - -24.5°
Maximum altitude 13:25:37 28° 107° (ESE) 1,292 - -25.4°
Drops below altitude 10° 13:29:58 10° 48° (NE) 2,257 - -26.3°
Sets 13:32:43 0° 38° (NE) 3,242 - -26.9°
